Regional Weather Roundup
Issued by NWS

Home | Current Version | Previous Version | Graphics & Text | Print | Product List | Glossary On
Versions: 1 2 3 4 5 6 7 8 9 10 11 12 13 14 15 16 17 18 19 20 21 22 23 24 25 26 27 28 29 30 31 32 33 34 35 36 37 38 39 40 41 42 43 44 45 46 47 48 49 50
000
ASUS45 KSLC 310210
RWRUT

UTAH REGIONAL WEATHER ROUNDUP
NATIONAL WEATHER SERVICE SALT LAKE CITY UT
700 PM MST FRI JAN 30 2015

UTZ001>011-023>025-310300-

NORTHERN UTAH

CITY           SKY/WX    TMP DP  RH WIND       PRES   REMARKS
BRIGHAM CITY   CLOUDY    47  31  52 S6        30.01S
HILL AFB       CLOUDY    42  29  61 E18       29.99R
LOGAN          CLOUDY    39  33  79 S3        30.03F
OGDEN          CLOUDY    45  34  65 SW6       29.98S
PROVO AIRPORT  CLOUDY    41  36  81 NW14      29.96S
SALT LAKE CITY LGT RAIN  40  35  83 W7        29.99S
VERNAL         LGT RAIN  38  37  97 CALM      30.01F FOG
WENDOVER       CLOUDY    45  34  65 N10       30.02S
HEBER CITY     MIX PCPN  36  32  87 CALM      30.00S
WEST JORDAN    CLOUDY    41  37  87 N9        29.98S

$$

UTZ012>022-026-027-310300-

SOUTHERN/CENTRAL UTAH

CITY           SKY/WX    TMP DP  RH WIND       PRES   REMARKS
BLANDING       CLOUDY    33  33 100 CALM      30.06F
BRYCE CANYON   SNOW      30  29  96 SE9       29.95R WCI  22
CEDAR CITY     LGT RAIN  39  38  96 CALM      29.89R
DELTA          CLOUDY    39  38  97 N12       29.93S WCI  32
HANKSVILLE     CLOUDY    41  41 100 CALM      30.00S
MILFORD        LGT RAIN  40  37  89 N16       29.91R WCI  31
MOAB/CYNLANDS  LGT RAIN  41  41 100 W3        29.96F
PRICE          LGT RAIN  38  36  92 W3        29.98F
ST GEORGE      CLOUDY    48  45  87 CALM      29.89S
KANAB          CLOUDY    37  34  87 N8        29.95F WCI  31

$$

REGIONAL REPORTS     COLORADO/ARIZONA

CITY           SKY/WX    TMP DP  RH WIND       PRES   REMARKS
CRAIG, CO      CLOUDY    35  31  85 CALM      30.01F
GRAND JUNCTION CLOUDY    40  37  89 CALM      29.97S
RIFLE          LGT RAIN  38  36  92 SE5       29.99S WCI  34
MONTROSE       CLOUDY    40  36  86 N3        30.00S
CORTEZ         CLOUDY    37  34  89 VRB5      29.99F WCI  33
PAGE, AZ       NOT AVBL
GRAND CANYON   MIX PCPN  36  34  92 E5        29.90S WCI  32
KINGMAN        LGT RAIN  47  45  93 NE5       29.86R
FLAGSTAFF      RAIN      39  37  92 SW5       29.91R FOG

$$

REGIONAL REPORTS    NEVADA/IDAHO/WYOMING

CITY           SKY/WX    TMP DP  RH WIND       PRES   REMARKS
LAS VEGAS, NV  CLOUDY    53  41  63 NW6       29.83S
ELY            CLOUDY    35  34  96 N18       29.96S WCI  24
ELKO           CLOUDY    42  30  62 NE12      30.01S
POCATELLO, ID  CLEAR     33  30  88 S7        30.10S WCI  27
BURLEY         CLOUDY    35  30  82 W6        30.12S WCI  30
EVANSTON, WY   FLURRIES  33  26  75 NE8       30.04S WCI  26
ROCK SPRINGS   CLOUDY    31  27  85 NE20      30.06F WCI  19
KEMMERER       MIX PCPN  32  28  86 NE13      30.06F WCI  22

$$



USA.gov is the U.S. government's official web portal to all federal, state and local government web resources and services.